Tracking 28793 objects as of 21-Apr-2024
HD Live streaming from Space Station
objects crossing your sky now

STARLINK-4045

Track STARLINK-4045 now!
10-day predictions
STARLINK-4045 is classified as:


NORAD ID: 53152
Int'l Code: 2022-083W
Perigee: 545.9 km
Apogee: 547.9 km
Inclination: 53.2 °
Period: 95.4 minutes
Semi major axis: 6917 km
RCS: Unknown
Launch date: July 17, 2022
Source: United States (US)
Launch site: AIR FORCE EASTERN TEST RANGE (AFETR)
Your satellite tracking list
Your tracking list is empty




NASA's NSSDC Master Catalog

Two Line Element Set (TLE):
1 53152U 22083W   24112.10363203 -.00003589  00000-0 -20751-3 0  9994
2 53152  53.2194  10.8071 0001422 128.6592 231.4528 15.08838132 98181
Source of the keplerian elements: AFSPC